• In Hungary
  • List of Countries
  • For 7 days
  • Water Temperature
  • Satellite Maps
  • Weather Map
  • News
  • Weather Widgets
  • user-avatar
    Login

    Hourly Weather Olszana

    Today, 18 September, Tuesday

    Time Temperature Precipitation Wind Pressure Humidity
    00:00 +15°C° 0 mm 1 mps 733 mmHg 85%
    01:00 +15°C° 0 mm 1 mps 733 mmHg 85%
    02:00 +14°C° 0 mm 1 mps 733 mmHg 86%
    03:00 +14°C° 0 mm 1 mps 733 mmHg 86%
    04:00 +14°C° 0 mm 1 mps 733 mmHg 87%
    05:00 +15°C° 0 mm 1 mps 733 mmHg 83%
    06:00 +16°C° 0 mm 1 mps 733 mmHg 79%
    07:00 +18°C° 0 mm 1 mps 733 mmHg 72%
    08:00 +20°C° 0 mm 1 mps 733 mmHg 64%
    09:00 +22°C° 0 mm 1 mps 734 mmHg 57%
    10:00 +24°C° 0 mm 2 mps 734 mmHg 50%
    11:00 +25°C° 0 mm 2 mps 734 mmHg 47%
    12:00 +26°C° 0 mm 2 mps 733 mmHg 44%
    13:00 +27°C° 0 mm 2 mps 733 mmHg 43%
    14:00 +26°C° 0 mm 2 mps 733 mmHg 46%
    15:00 +26°C° 0 mm 2 mps 733 mmHg 49%
    16:00 +26°C° 0 mm 1 mps 732 mmHg 52%
    17:00 +23°C° 0 mm 2 mps 732 mmHg 59%
    18:00 +20°C° 0 mm 2 mps 732 mmHg 66%
    19:00 +17°C° 0 mm 2 mps 732 mmHg 74%
    20:00 +17°C° 0 mm 2 mps 732 mmHg 75%
    21:00 +16°C° 0 mm 2 mps 732 mmHg 77%
    22:00 +16°C° 0 mm 2 mps 732 mmHg 78%
    23:00 +15°C° 0 mm 2 mps 732 mmHg 79%

    Tomorrow, 19 September, Wednesday

    Time Temperature Precipitation Wind Pressure Humidity
    00:00 +15°C° 0 mm 2 mps 732 mmHg 79%
    01:00 +15°C° 0 mm 2 mps 732 mmHg 80%
    02:00 +14°C° 0 mm 1 mps 732 mmHg 80%
    03:00 +14°C° 0 mm 1 mps 732 mmHg 81%
    04:00 +14°C° 0 mm 1 mps 732 mmHg 81%
    05:00 +15°C° 0 mm 1 mps 732 mmHg 78%
    06:00 +16°C° 0 mm 1 mps 733 mmHg 74%
    07:00 +18°C° 0 mm 1 mps 733 mmHg 71%
    08:00 +20°C° 0 mm 1 mps 733 mmHg 62%
    09:00 +23°C° 0 mm 2 mps 733 mmHg 53%
    10:00 +25°C° 0 mm 2 mps 733 mmHg 44%
    11:00 +26°C° 0 mm 2 mps 733 mmHg 41%
    12:00 +27°C° 0 mm 2 mps 733 mmHg 39%
    13:00 +27°C° 0 mm 2 mps 733 mmHg 37%
    14:00 +27°C° 0 mm 2 mps 733 mmHg 40%
    15:00 +27°C° 0 mm 1 mps 733 mmHg 44%
    16:00 +26°C° 0 mm 1 mps 733 mmHg 48%
    17:00 +24°C° 0 mm 1 mps 733 mmHg 54%
    18:00 +22°C° 0 mm 1 mps 733 mmHg 60%
    19:00 +19°C° 0 mm 1 mps 733 mmHg 66%
    20:00 +19°C° 0 mm 1 mps 733 mmHg 68%
    21:00 +18°C° 0 mm 1 mps 733 mmHg 70%
    22:00 +18°C° 0 mm 1 mps 733 mmHg 72%
    23:00 +16°C° 0 mm 1 mps 733 mmHg 73%

    Day after tomorrow, 20 September, Thursday

    Time Temperature Precipitation Wind Pressure Humidity
    00:00 +16°C° 0 mm 1 mps 733 mmHg 75%
    01:00 +16°C° 0 mm 1 mps 733 mmHg 76%
    02:00 +15°C° 0 mm 1 mps 733 mmHg 77%
    03:00 +15°C° 0 mm 1 mps 732 mmHg 77%
    04:00 +15°C° 0 mm 1 mps 732 mmHg 78%
    05:00 +16°C° 0 mm 1 mps 733 mmHg 75%
    06:00 +18°C° 0 mm 1 mps 733 mmHg 72%
    07:00 +19°C° 0 mm 1 mps 733 mmHg 70%
    08:00 +21°C° 0 mm 1 mps 733 mmHg 62%
    09:00 +24°C° 0 mm 1 mps 733 mmHg 54%
    10:00 +26°C° 0 mm 1 mps 733 mmHg 46%
    11:00 +27°C° 0 mm 1 mps 733 mmHg 43%
    12:00 +27°C° 0 mm 1 mps 733 mmHg 41%
    13:00 +28°C° 0 mm 1 mps 733 mmHg 39%
    14:00 +27°C° 0 mm 1 mps 732 mmHg 42%
    15:00 +27°C° 0 mm 1 mps 732 mmHg 45%
    16:00 +26°C° 0 mm 1 mps 732 mmHg 49%
    17:00 +24°C° 0 mm 1 mps 732 mmHg 55%
    18:00 +22°C° 0 mm 1 mps 732 mmHg 61%
    19:00 +20°C° 0 mm 1 mps 731 mmHg 67%
    20:00 +19°C° 0 mm 1 mps 731 mmHg 69%
    21:00 +19°C° 0 mm 1 mps 731 mmHg 71%
    22:00 +18°C° 0 mm 1 mps 731 mmHg 73%
    23:00 +18°C° 0 mm 1 mps 731 mmHg 74%

    21 September, Friday

    Time Temperature Precipitation Wind Pressure Humidity
    00:00 +18°C° 0 mm 1 mps 731 mmHg 75%
    01:00 +16°C° 0 mm 1 mps 731 mmHg 76%
    02:00 +16°C° 0 mm 1 mps 731 mmHg 77%
    03:00 +16°C° 0 mm 1 mps 731 mmHg 77%
    04:00 +16°C° 0 mm 1 mps 730 mmHg 78%
    05:00 +16°C° 0 mm 1 mps 730 mmHg 75%
    06:00 +18°C° 0 mm 1 mps 730 mmHg 73%
    07:00 +19°C° 0 mm 1 mps 731 mmHg 70%
    08:00 +20°C° 0 mm 2 mps 731 mmHg 62%
    09:00 +24°C° 0 mm 2 mps 730 mmHg 54%
    10:00 +26°C° 0 mm 2 mps 730 mmHg 45%
    11:00 +27°C° 0 mm 3 mps 730 mmHg 43%
    12:00 +27°C° 0 mm 3 mps 730 mmHg 41%
    13:00 +28°C° 0 mm 3 mps 729 mmHg 38%
    14:00 +28°C° 0 mm 3 mps 729 mmHg 41%
    15:00 +27°C° 0 mm 3 mps 728 mmHg 44%
    16:00 +26°C° 0 mm 3 mps 728 mmHg 47%
    17:00 +24°C° 0 mm 3 mps 727 mmHg 53%
    18:00 +21°C° 0 mm 3 mps 727 mmHg 59%
    19:00 +19°C° 0 mm 3 mps 727 mmHg 65%
    20:00 +18°C° 0 mm 3 mps 727 mmHg 65%
    21:00 +18°C° 0 mm 3 mps 726 mmHg 66%
    22:00 +17°C° 0 mm 3 mps 726 mmHg 66%
    23:00 +17°C° 0 mm 3 mps 726 mmHg 64%

    22 September, Saturday

    Time Temperature Precipitation Wind Pressure Humidity
    00:00 +17°C° 0 mm 3 mps 725 mmHg 61%
    01:00 +17°C° 0 mm 3 mps 725 mmHg 59%
    02:00 +16°C° 0 mm 3 mps 725 mmHg 59%
    03:00 +16°C° 0 mm 3 mps 726 mmHg 59%
    04:00 +16°C° 0 mm 3 mps 726 mmHg 59%
    05:00 +14°C° 0.3 mm 4 mps 727 mmHg 67%
    06:00 +13°C° 0.3 mm 4 mps 728 mmHg 75%
    07:00 +12°C° 0.3 mm 5 mps 729 mmHg 84%
    08:00 +11°C° 0.2 mm 4 mps 729 mmHg 82%
    09:00 +11°C° 0.2 mm 4 mps 730 mmHg 81%
    10:00 +10°C° 0.2 mm 3 mps 730 mmHg 79%
    11:00 +10°C° 0.6 mm 3 mps 731 mmHg 79%
    12:00 +10°C° 0.6 mm 2 mps 731 mmHg 79%
    13:00 +10°C° 0.6 mm 2 mps 731 mmHg 79%
    14:00 +10°C° 0.1 mm 2 mps 731 mmHg 78%
    15:00 +10°C° 0.1 mm 2 mps 731 mmHg 76%
    16:00 +11°C° 0.1 mm 3 mps 731 mmHg 75%
    17:00 +10°C° 0 mm 2 mps 731 mmHg 78%
    18:00 +9°C° 0 mm 2 mps 731 mmHg 81%
    19:00 +8°C° 0 mm 2 mps 732 mmHg 85%
    20:00 +8°C° 0 mm 2 mps 732 mmHg 85%
    21:00 +8°C° 0 mm 2 mps 732 mmHg 86%
    22:00 +7°C° 0 mm 2 mps 732 mmHg 87%
    23:00 +7°C° 0 mm 2 mps 732 mmHg 86%

    23 September, Sunday

    Time Temperature Precipitation Wind Pressure Humidity
    00:00 +7°C° 0 mm 2 mps 732 mmHg 86%
    01:00 +7°C° 0 mm 2 mps 732 mmHg 85%
    02:00 +6°C° 0 mm 2 mps 732 mmHg 85%
    03:00 +6°C° 0 mm 2 mps 732 mmHg 84%
    04:00 +6°C° 0 mm 2 mps 732 mmHg 84%
    05:00 +7°C° 0 mm 2 mps 732 mmHg 81%
    06:00 +8°C° 0 mm 2 mps 732 mmHg 79%
    07:00 +9°C° 0 mm 2 mps 732 mmHg 76%
    08:00 +10°C° 0 mm 2 mps 732 mmHg 66%
    09:00 +13°C° 0 mm 2 mps 732 mmHg 57%
    10:00 +15°C° 0 mm 2 mps 732 mmHg 47%
    11:00 +16°C° 0 mm 3 mps 731 mmHg 44%
    12:00 +17°C° 0 mm 3 mps 731 mmHg 40%
    13:00 +18°C° 0 mm 3 mps 730 mmHg 36%
    14:00 +18°C° 0 mm 3 mps 729 mmHg 39%
    15:00 +17°C° 0 mm 3 mps 729 mmHg 42%
    16:00 +17°C° 0 mm 3 mps 728 mmHg 45%
    17:00 +16°C° 0 mm 3 mps 728 mmHg 50%
    18:00 +13°C° 0 mm 3 mps 727 mmHg 54%
    19:00 +12°C° 0 mm 3 mps 726 mmHg 59%
    20:00 +12°C° 0.1 mm 4 mps 726 mmHg 61%
    21:00 +10°C° 0.1 mm 5 mps 725 mmHg 62%
    22:00 +10°C° 0.1 mm 5 mps 724 mmHg 64%
    23:00 +10°C° 0 mm 5 mps 723 mmHg 64%
    Show more